Year,Month,Day,Hour,Minute,Value (Times are PST for temperature in C)
2011,04,08,00,00,2.90
2011,04,08,00,01,2.80
2011,04,08,00,02,2.80
2011,04,08,00,03,2.80
2011,04,08,00,04,2.80
2011,04,08,00,05,2.80
2011,04,08,00,06,2.80
2011,04,08,00,07,2.80
2011,04,08,00,08,2.80
2011,04,08,00,09,2.70
2011,04,08,00,10,2.70
2011,04,08,00,11,2.70
2011,04,08,00,12,2.70
2011,04,08,00,13,2.70
2011,04,08,00,14,2.70
2011,04,08,00,15,2.70
2011,04,08,00,16,2.70
2011,04,08,00,17,2.70
2011,04,08,00,18,2.70
2011,04,08,00,19,2.70
2011,04,08,00,20,2.70
2011,04,08,00,21,2.70
2011,04,08,00,22,2.70
2011,04,08,00,23,2.70
2011,04,08,00,24,2.70
2011,04,08,00,25,2.70
2011,04,08,00,26,2.70
2011,04,08,00,27,2.70
2011,04,08,00,28,2.60
2011,04,08,00,29,2.60
2011,04,08,00,30,2.60
2011,04,08,00,31,2.60
2011,04,08,00,32,2.50
2011,04,08,00,33,2.50
2011,04,08,00,34,2.40
2011,04,08,00,35,2.40
2011,04,08,00,36,2.40
2011,04,08,00,37,2.40
2011,04,08,00,38,2.30
2011,04,08,00,39,2.30
2011,04,08,00,40,2.30
2011,04,08,00,41,2.30
2011,04,08,00,42,2.20
2011,04,08,00,43,2.20
2011,04,08,00,44,2.20
2011,04,08,00,45,2.10
2011,04,08,00,46,2.10
2011,04,08,00,47,2.10
2011,04,08,00,48,2.00
2011,04,08,00,49,2.00
2011,04,08,00,50,2.00
2011,04,08,00,51,1.90
2011,04,08,00,52,1.90
2011,04,08,00,53,1.90
2011,04,08,00,54,1.90
2011,04,08,00,55,1.90
2011,04,08,00,56,1.90
2011,04,08,00,57,1.90
2011,04,08,00,58,1.90
2011,04,08,00,59,1.90
2011,04,08,01,00,1.90
2011,04,08,01,01,1.90
2011,04,08,01,02,1.90
2011,04,08,01,03,1.90
2011,04,08,01,04,1.90
2011,04,08,01,05,1.80
2011,04,08,01,06,1.80
2011,04,08,01,07,1.80
2011,04,08,01,08,1.80
2011,04,08,01,09,1.80
2011,04,08,01,10,1.80
2011,04,08,01,11,1.80
2011,04,08,01,12,1.70
2011,04,08,01,13,1.70
2011,04,08,01,14,1.70
2011,04,08,01,15,1.70
2011,04,08,01,16,1.70
2011,04,08,01,17,1.70
2011,04,08,01,18,1.70
2011,04,08,01,19,1.60
2011,04,08,01,20,1.60
2011,04,08,01,21,1.60
2011,04,08,01,22,1.60
2011,04,08,01,23,1.60
2011,04,08,01,24,1.60
2011,04,08,01,25,1.60
2011,04,08,01,26,1.60
2011,04,08,01,27,1.60
2011,04,08,01,28,1.60
2011,04,08,01,29,1.60
2011,04,08,01,30,1.60
2011,04,08,01,31,1.60
2011,04,08,01,32,1.60
2011,04,08,01,33,1.60
2011,04,08,01,34,1.60
2011,04,08,01,35,1.60
2011,04,08,01,36,1.60
2011,04,08,01,37,1.60
2011,04,08,01,38,1.60
2011,04,08,01,39,1.60
2011,04,08,01,40,1.60
2011,04,08,01,41,1.60
2011,04,08,01,42,1.60
2011,04,08,01,43,1.60
2011,04,08,01,44,1.60
2011,04,08,01,45,1.60
2011,04,08,01,46,1.60
2011,04,08,01,47,1.60
2011,04,08,01,48,1.60
2011,04,08,01,49,1.60
2011,04,08,01,50,1.60
2011,04,08,01,51,1.60
2011,04,08,01,52,1.60
2011,04,08,01,53,1.60
2011,04,08,01,54,1.50
2011,04,08,01,55,1.50
2011,04,08,01,56,1.50
2011,04,08,01,57,1.40
2011,04,08,01,58,1.50
2011,04,08,01,59,1.40
2011,04,08,02,00,1.50
2011,04,08,02,01,1.50
2011,04,08,02,02,1.50
2011,04,08,02,03,1.40
2011,04,08,02,04,1.40
2011,04,08,02,05,1.40
2011,04,08,02,06,1.40
2011,04,08,02,07,1.40
2011,04,08,02,08,1.40
2011,04,08,02,09,1.40
2011,04,08,02,10,1.30
2011,04,08,02,11,1.30
2011,04,08,02,12,1.30
2011,04,08,02,13,1.30
2011,04,08,02,14,1.30
2011,04,08,02,15,1.30
2011,04,08,02,16,1.30
2011,04,08,02,17,1.30
2011,04,08,02,18,1.30
2011,04,08,02,19,1.30
2011,04,08,02,20,1.30
2011,04,08,02,21,1.20
2011,04,08,02,22,1.20
2011,04,08,02,23,1.20
2011,04,08,02,24,1.20
2011,04,08,02,25,1.10
2011,04,08,02,26,1.10
2011,04,08,02,27,1.10
2011,04,08,02,28,1.10
2011,04,08,02,29,1.00
2011,04,08,02,30,1.00
2011,04,08,02,31,1.00
2011,04,08,02,32,1.00
2011,04,08,02,33,1.00
2011,04,08,02,34,1.00
2011,04,08,02,35,1.00
2011,04,08,02,36,1.00
2011,04,08,02,37,1.00
2011,04,08,02,38,1.10
2011,04,08,02,39,1.00
2011,04,08,02,40,1.00
2011,04,08,02,41,1.00
2011,04,08,02,42,1.00
2011,04,08,02,43,1.00
2011,04,08,02,44,0.90
2011,04,08,02,45,0.90
2011,04,08,02,46,0.90
2011,04,08,02,47,0.90
2011,04,08,02,48,0.90
2011,04,08,02,49,0.80
2011,04,08,02,50,0.80
2011,04,08,02,51,0.80
2011,04,08,02,52,0.80
2011,04,08,02,53,0.80
2011,04,08,02,54,0.80
2011,04,08,02,55,0.80
2011,04,08,02,56,0.80
2011,04,08,02,57,0.70
2011,04,08,02,58,0.70
2011,04,08,02,59,0.70
2011,04,08,03,00,0.70
2011,04,08,03,01,0.70
2011,04,08,03,02,0.60
2011,04,08,03,06,0.60
2011,04,08,03,07,0.60
2011,04,08,03,08,0.60
2011,04,08,03,09,0.50
2011,04,08,03,10,0.50
2011,04,08,03,11,0.50
2011,04,08,03,12,0.50
2011,04,08,03,13,0.50
2011,04,08,03,14,0.50
2011,04,08,03,15,0.50
2011,04,08,03,16,0.40
2011,04,08,03,17,0.40
2011,04,08,03,18,0.40
2011,04,08,03,19,0.40
2011,04,08,03,20,0.40
2011,04,08,03,21,0.40
2011,04,08,03,22,0.40
2011,04,08,03,23,0.40
2011,04,08,03,24,0.40
2011,04,08,03,25,0.40
2011,04,08,03,26,0.40
2011,04,08,03,27,0.40
2011,04,08,03,28,0.40
2011,04,08,03,29,0.40
2011,04,08,03,30,0.50
2011,04,08,03,31,0.50
2011,04,08,03,32,0.50
2011,04,08,03,33,0.50
2011,04,08,03,34,0.50
2011,04,08,03,35,0.40
2011,04,08,03,36,0.40
2011,04,08,03,37,0.40
2011,04,08,03,38,0.40
2011,04,08,03,39,0.40
2011,04,08,03,40,0.40
2011,04,08,03,41,0.40
2011,04,08,03,42,0.40
2011,04,08,03,43,0.40
2011,04,08,03,44,0.40
2011,04,08,03,45,0.40
2011,04,08,03,46,0.40
2011,04,08,03,47,0.40
2011,04,08,03,48,0.40
2011,04,08,03,49,0.40
2011,04,08,03,50,0.40
2011,04,08,03,51,0.40
2011,04,08,03,52,0.40
2011,04,08,03,53,0.40
2011,04,08,03,54,0.30
2011,04,08,03,55,0.30
2011,04,08,03,56,0.30
2011,04,08,03,57,0.30
2011,04,08,03,58,0.30
2011,04,08,03,59,0.30
2011,04,08,04,00,0.20
2011,04,08,04,01,0.20
2011,04,08,04,02,0.20
2011,04,08,04,03,0.20
2011,04,08,04,04,0.20
2011,04,08,04,05,0.10
2011,04,08,04,06,0.10
2011,04,08,04,07,0.10
2011,04,08,04,08,0.10
2011,04,08,04,09,0.00
2011,04,08,04,10,0.00
2011,04,08,04,11,0.00
2011,04,08,04,12,0.00
2011,04,08,04,13,-0.10
2011,04,08,04,14,-0.10
2011,04,08,04,15,-0.10
2011,04,08,04,16,-0.10
2011,04,08,04,17,-0.10
2011,04,08,04,18,-0.10
2011,04,08,04,19,-0.20
2011,04,08,04,20,-0.20
2011,04,08,04,21,-0.20
2011,04,08,04,22,-0.20
2011,04,08,04,23,-0.20
2011,04,08,04,24,-0.20
2011,04,08,04,25,-0.20
2011,04,08,04,26,-0.20
2011,04,08,04,27,-0.30
2011,04,08,04,28,-0.30
2011,04,08,04,29,-0.30
2011,04,08,04,30,-0.30
2011,04,08,04,31,-0.30
2011,04,08,04,32,-0.30
2011,04,08,04,33,-0.30
2011,04,08,04,34,-0.30
2011,04,08,04,35,-0.30
2011,04,08,04,36,-0.40
2011,04,08,04,37,-0.40
2011,04,08,04,38,-0.40
2011,04,08,04,39,-0.40
2011,04,08,04,40,-0.40
2011,04,08,04,41,-0.40
2011,04,08,04,42,-0.30
2011,04,08,04,43,-0.30
2011,04,08,04,44,-0.30
2011,04,08,04,45,-0.30
2011,04,08,04,46,-0.30
2011,04,08,04,47,-0.30
2011,04,08,04,48,-0.30
2011,04,08,04,49,-0.30
2011,04,08,04,50,-0.30
2011,04,08,04,51,-0.20
2011,04,08,04,52,-0.20
2011,04,08,04,53,-0.20
2011,04,08,04,54,-0.20
2011,04,08,04,55,-0.20
2011,04,08,04,56,-0.20
2011,04,08,04,57,-0.20
2011,04,08,04,58,-0.20
2011,04,08,04,59,-0.20
2011,04,08,05,00,-0.20
2011,04,08,05,01,-0.20
2011,04,08,05,02,-0.20
2011,04,08,05,03,-0.30
2011,04,08,05,04,-0.30
2011,04,08,05,05,-0.30
2011,04,08,05,06,-0.30
2011,04,08,05,07,-0.30
2011,04,08,05,08,-0.20
2011,04,08,05,09,-0.20
2011,04,08,05,10,-0.20
2011,04,08,05,11,-0.20
2011,04,08,05,12,-0.20
2011,04,08,05,13,-0.20
2011,04,08,05,14,-0.20
2011,04,08,05,15,-0.20
2011,04,08,05,16,-0.20
2011,04,08,05,17,-0.10
2011,04,08,05,18,-0.20
2011,04,08,05,19,-0.20
2011,04,08,05,20,-0.20
2011,04,08,05,21,-0.20
2011,04,08,05,22,-0.10
2011,04,08,05,23,-0.10
2011,04,08,05,24,-0.10
2011,04,08,05,25,-0.10
2011,04,08,05,26,-0.10
2011,04,08,05,27,-0.10
2011,04,08,05,28,-0.10
2011,04,08,05,29,-0.10
2011,04,08,05,30,-0.10
2011,04,08,05,31,-0.10
2011,04,08,05,32,-0.10
2011,04,08,05,33,-0.10
2011,04,08,05,34,-0.10
2011,04,08,05,35,-0.10
2011,04,08,05,36,-0.10
2011,04,08,05,37,-0.10
2011,04,08,05,38,-0.10
2011,04,08,05,39,-0.10
2011,04,08,05,40,-0.10
2011,04,08,05,41,-0.10
2011,04,08,05,42,-0.10
2011,04,08,05,43,-0.20
2011,04,08,05,44,-0.20
2011,04,08,05,45,-0.20
2011,04,08,05,46,-0.20
2011,04,08,05,47,-0.20
2011,04,08,05,48,-0.20
2011,04,08,05,49,-0.20
2011,04,08,05,50,-0.20
2011,04,08,05,51,-0.20
2011,04,08,05,52,-0.30
2011,04,08,05,53,-0.30
2011,04,08,05,54,-0.30
2011,04,08,05,55,-0.30
2011,04,08,05,56,-0.30
2011,04,08,05,57,-0.30
2011,04,08,05,58,-0.30
2011,04,08,05,59,-0.30
2011,04,08,06,00,-0.30
2011,04,08,06,01,-0.30
2011,04,08,06,02,-0.30
2011,04,08,06,03,-0.30
2011,04,08,06,04,-0.30
2011,04,08,06,05,-0.30
2011,04,08,06,06,-0.30
2011,04,08,06,07,-0.30
2011,04,08,06,08,-0.40
2011,04,08,06,09,-0.40
2011,04,08,06,10,-0.40
2011,04,08,06,11,-0.40
2011,04,08,06,12,-0.50
2011,04,08,06,13,-0.50
2011,04,08,06,14,-0.50
2011,04,08,06,15,-0.50
2011,04,08,06,16,-0.50
2011,04,08,06,17,-0.50
2011,04,08,06,18,-0.50
2011,04,08,06,19,-0.50
2011,04,08,06,20,-0.60
2011,04,08,06,21,-0.60
2011,04,08,06,22,-0.60
2011,04,08,06,23,-0.60
2011,04,08,06,24,-0.60
2011,04,08,06,25,-0.70
2011,04,08,06,26,-0.70
2011,04,08,06,27,-0.70
2011,04,08,06,28,-0.70
2011,04,08,06,29,-0.70
2011,04,08,06,30,-0.70
2011,04,08,06,31,-0.70
2011,04,08,06,32,-0.70
2011,04,08,06,33,-0.70
2011,04,08,06,34,-0.70
2011,04,08,06,35,-0.80
2011,04,08,06,36,-0.80
2011,04,08,06,37,-0.80
2011,04,08,06,38,-0.80
2011,04,08,06,39,-0.90
2011,04,08,06,40,-0.90
2011,04,08,06,41,-0.90
2011,04,08,06,42,-0.90
2011,04,08,06,43,-1.00
2011,04,08,06,44,-1.00
2011,04,08,06,45,-1.00
2011,04,08,06,46,-1.00
2011,04,08,06,47,-1.10
2011,04,08,06,48,-1.10
2011,04,08,06,49,-1.10
2011,04,08,06,50,-1.10
2011,04,08,06,51,-1.20
2011,04,08,06,52,-1.20
2011,04,08,06,53,-1.20
2011,04,08,06,54,-1.30
2011,04,08,06,55,-1.30
2011,04,08,06,56,-1.30
2011,04,08,06,57,-1.30
2011,04,08,06,58,-1.40
2011,04,08,06,59,-1.40
2011,04,08,07,00,-1.40
2011,04,08,07,01,-1.40
2011,04,08,07,02,-1.40
2011,04,08,07,03,-1.40
2011,04,08,07,04,-1.40
2011,04,08,07,05,-1.40
2011,04,08,07,06,-1.40
2011,04,08,07,07,-1.40
2011,04,08,07,08,-1.40
2011,04,08,07,09,-1.40
2011,04,08,07,10,-1.40
2011,04,08,07,11,-1.40
2011,04,08,07,12,-1.40
2011,04,08,07,13,-1.40
2011,04,08,07,14,-1.30
2011,04,08,07,15,-1.30
2011,04,08,07,16,-1.30
2011,04,08,07,17,-1.30
2011,04,08,07,18,-1.20
2011,04,08,07,19,-1.20
2011,04,08,07,20,-1.20
2011,04,08,07,21,-1.20
2011,04,08,07,22,-1.20
2011,04,08,07,23,-1.20
2011,04,08,07,24,-1.20
2011,04,08,07,25,-1.20
2011,04,08,07,26,-1.20
2011,04,08,07,27,-1.20
2011,04,08,07,28,-1.20
2011,04,08,07,29,-1.20
2011,04,08,07,30,-1.20
2011,04,08,07,31,-1.20
2011,04,08,07,32,-1.20
2011,04,08,07,33,-1.20
2011,04,08,07,34,-1.20
2011,04,08,07,35,-1.20
2011,04,08,07,36,-1.20
2011,04,08,07,37,-1.20
2011,04,08,07,38,-1.20
2011,04,08,07,39,-1.20
2011,04,08,07,40,-1.20
2011,04,08,07,41,-1.10
2011,04,08,07,42,-1.10
2011,04,08,07,43,-1.10
2011,04,08,07,44,-1.10
2011,04,08,07,45,-1.10
2011,04,08,07,46,-1.10
2011,04,08,07,47,-1.10
2011,04,08,07,48,-1.10
2011,04,08,07,49,-1.10
2011,04,08,07,50,-1.10
2011,04,08,07,51,-1.10
2011,04,08,07,52,-1.10
2011,04,08,07,53,-1.00
2011,04,08,07,54,-1.00
2011,04,08,07,55,-1.00
2011,04,08,07,56,-0.90
2011,04,08,07,57,-0.90
2011,04,08,07,58,-0.80
2011,04,08,07,59,-0.80
2011,04,08,08,00,-0.70
2011,04,08,08,01,-0.60
2011,04,08,08,02,-0.60
2011,04,08,08,03,-0.50
2011,04,08,08,04,-0.40
2011,04,08,08,05,-0.40
2011,04,08,08,06,-0.40
2011,04,08,08,07,-0.30
2011,04,08,08,08,-0.30
2011,04,08,08,09,-0.30
2011,04,08,08,10,-0.20
2011,04,08,08,11,-0.20
2011,04,08,08,12,-0.10
2011,04,08,08,13,-0.10
2011,04,08,08,14,0.00
2011,04,08,08,15,0.10
2011,04,08,08,16,0.10
2011,04,08,08,17,0.10
2011,04,08,08,18,0.10
2011,04,08,08,19,0.10
2011,04,08,08,20,0.10
2011,04,08,08,21,0.10
2011,04,08,08,22,0.10
2011,04,08,08,23,0.10
2011,04,08,08,24,0.10
2011,04,08,08,25,0.10
2011,04,08,08,26,0.00
2011,04,08,08,27,0.00
2011,04,08,08,28,0.00
2011,04,08,08,29,0.00
2011,04,08,08,30,0.00
2011,04,08,08,31,0.00
2011,04,08,08,32,0.10
2011,04,08,08,33,0.10
2011,04,08,08,34,0.10
2011,04,08,08,35,0.20
2011,04,08,08,36,0.20
2011,04,08,08,37,0.20
2011,04,08,08,38,0.30
2011,04,08,08,39,0.30
2011,04,08,08,40,0.40
2011,04,08,08,41,0.40
2011,04,08,08,42,0.50
2011,04,08,08,43,0.60
2011,04,08,08,44,0.70
2011,04,08,08,45,0.80
2011,04,08,08,46,0.90
2011,04,08,08,47,0.90
2011,04,08,08,48,1.00
2011,04,08,08,49,1.00
2011,04,08,08,50,1.10
2011,04,08,08,51,1.10
2011,04,08,08,52,1.10
2011,04,08,08,53,1.10
2011,04,08,08,54,1.10
2011,04,08,08,55,1.10
2011,04,08,08,56,1.10
2011,04,08,08,57,1.10
2011,04,08,08,58,1.10
2011,04,08,08,59,1.10
2011,04,08,09,00,1.20
2011,04,08,09,01,1.20
2011,04,08,09,02,1.20
2011,04,08,09,03,1.20
2011,04,08,09,04,1.20
2011,04,08,09,05,1.30
2011,04,08,09,06,1.40
2011,04,08,09,07,1.40
2011,04,08,09,08,1.40
2011,04,08,09,09,1.50
2011,04,08,09,10,1.50
2011,04,08,09,11,1.50
2011,04,08,09,12,1.60
2011,04,08,09,13,1.60
2011,04,08,09,14,1.70
2011,04,08,09,15,1.70
2011,04,08,09,16,1.80
2011,04,08,09,17,1.90
2011,04,08,09,18,1.90
2011,04,08,09,19,2.00
2011,04,08,09,20,2.00
2011,04,08,09,21,2.10
2011,04,08,09,22,2.20
2011,04,08,09,23,2.20
2011,04,08,09,24,2.30
2011,04,08,09,25,2.30
2011,04,08,09,26,2.30
2011,04,08,09,27,2.30
2011,04,08,09,28,2.40
2011,04,08,09,29,2.40
2011,04,08,09,30,2.50
2011,04,08,09,31,2.60
2011,04,08,09,32,2.60
2011,04,08,09,33,2.70
2011,04,08,09,34,2.70
2011,04,08,09,35,2.60
2011,04,08,09,36,2.70
2011,04,08,09,37,2.70
2011,04,08,09,38,2.70
2011,04,08,09,39,2.70
2011,04,08,09,40,2.70
2011,04,08,09,41,2.70
2011,04,08,09,42,2.80
2011,04,08,09,43,2.80
2011,04,08,09,44,2.80
2011,04,08,09,45,2.80
2011,04,08,09,46,2.80
2011,04,08,09,47,2.80
2011,04,08,09,48,2.80
2011,04,08,09,49,2.80
2011,04,08,09,50,2.90
2011,04,08,09,51,2.90
2011,04,08,09,52,3.00
2011,04,08,09,53,3.10
2011,04,08,09,54,3.20
2011,04,08,09,55,3.20
2011,04,08,09,56,3.30
2011,04,08,09,57,3.40
2011,04,08,09,58,3.40
2011,04,08,09,59,3.40
2011,04,08,10,00,3.40
2011,04,08,10,01,3.50
2011,04,08,10,02,3.60
2011,04,08,10,03,3.60
2011,04,08,10,04,3.70
2011,04,08,10,05,3.70
2011,04,08,10,06,3.80
2011,04,08,10,07,3.80
2011,04,08,10,08,3.80
2011,04,08,10,09,3.90
2011,04,08,10,10,3.90
2011,04,08,10,11,4.00
2011,04,08,10,12,4.20
2011,04,08,10,13,4.30
2011,04,08,10,14,4.40
2011,04,08,10,15,4.60
2011,04,08,10,16,4.70
2011,04,08,10,17,4.70
2011,04,08,10,18,4.80
2011,04,08,10,19,4.80
2011,04,08,10,20,4.80
2011,04,08,10,21,4.80
2011,04,08,10,22,4.80
2011,04,08,10,23,4.70
2011,04,08,10,24,4.80
2011,04,08,10,25,4.80
2011,04,08,10,26,4.80
2011,04,08,10,27,4.80
2011,04,08,10,28,4.80
2011,04,08,10,29,4.90
2011,04,08,10,30,5.00
2011,04,08,10,31,5.00
2011,04,08,10,32,5.10
2011,04,08,10,33,5.20
2011,04,08,10,34,5.20
2011,04,08,10,35,5.20
2011,04,08,10,36,5.20
2011,04,08,10,37,5.20
2011,04,08,10,38,5.30
2011,04,08,10,39,5.30
2011,04,08,10,40,5.40
2011,04,08,10,41,5.40
2011,04,08,10,42,5.50
2011,04,08,10,43,5.60
2011,04,08,10,44,5.60
2011,04,08,10,45,5.60
2011,04,08,10,46,5.60
2011,04,08,10,47,5.60
2011,04,08,10,48,5.60
2011,04,08,10,49,5.60
2011,04,08,10,50,5.70
2011,04,08,10,51,5.70
2011,04,08,10,52,5.80
2011,04,08,10,53,5.90
2011,04,08,10,54,6.00
2011,04,08,10,55,6.00
2011,04,08,10,56,6.10
2011,04,08,10,57,6.10
2011,04,08,10,58,6.10
2011,04,08,10,59,6.10
2011,04,08,11,00,6.20
2011,04,08,11,01,6.30
2011,04,08,11,02,6.30
2011,04,08,11,03,6.30
2011,04,08,11,04,6.40
2011,04,08,11,05,6.50
2011,04,08,11,06,6.50
2011,04,08,11,07,6.50
2011,04,08,11,08,6.50
2011,04,08,11,09,6.60
2011,04,08,11,10,6.60
2011,04,08,11,11,6.70
2011,04,08,11,12,6.70
2011,04,08,11,13,6.80
2011,04,08,11,14,6.80
2011,04,08,11,15,6.90
2011,04,08,11,16,6.90
2011,04,08,11,17,7.00
2011,04,08,11,18,7.00
2011,04,08,11,19,7.10
2011,04,08,11,20,7.10
2011,04,08,11,21,7.20
2011,04,08,11,22,7.20
2011,04,08,11,23,7.30
2011,04,08,11,24,7.30
2011,04,08,11,25,7.50
2011,04,08,11,26,7.60
2011,04,08,11,27,7.70
2011,04,08,11,28,7.70
2011,04,08,11,29,7.80
2011,04,08,11,30,7.80
2011,04,08,11,31,7.80
2011,04,08,11,32,7.90
2011,04,08,11,33,7.90
2011,04,08,11,34,7.90
2011,04,08,11,35,7.90
2011,04,08,11,36,7.90
2011,04,08,11,37,8.00
2011,04,08,11,38,8.00
2011,04,08,11,39,8.00
2011,04,08,11,40,8.10
2011,04,08,11,41,8.10
2011,04,08,11,42,8.10
2011,04,08,11,43,8.20
2011,04,08,11,44,8.30
2011,04,08,11,45,8.40
2011,04,08,11,46,8.50
2011,04,08,11,47,8.70
2011,04,08,11,48,8.80
2011,04,08,11,49,8.80
2011,04,08,11,50,8.80
2011,04,08,11,51,8.90
2011,04,08,11,52,8.90
2011,04,08,11,53,8.90
2011,04,08,11,54,8.90
2011,04,08,11,55,9.00
2011,04,08,11,56,9.00
2011,04,08,11,57,9.10
2011,04,08,11,58,9.10
2011,04,08,11,59,9.20
2011,04,08,12,00,9.40
2011,04,08,12,01,9.50
2011,04,08,12,02,9.60
2011,04,08,12,03,9.70
2011,04,08,12,04,9.70
2011,04,08,12,05,9.80
2011,04,08,12,06,9.80
2011,04,08,12,07,9.70
2011,04,08,12,08,9.70
2011,04,08,12,09,9.70
2011,04,08,12,10,9.70
2011,04,08,12,11,9.80
2011,04,08,12,12,9.80
2011,04,08,12,13,9.90
2011,04,08,12,14,9.90
2011,04,08,12,15,9.90
2011,04,08,12,16,10.00
2011,04,08,12,17,10.00
2011,04,08,12,18,10.00
2011,04,08,12,19,9.90
2011,04,08,12,20,9.90
2011,04,08,12,21,10.00
2011,04,08,12,22,10.00
2011,04,08,12,23,9.90
2011,04,08,12,24,10.00
2011,04,08,12,25,10.00
2011,04,08,12,26,10.00
2011,04,08,12,27,10.10
2011,04,08,12,28,10.00
2011,04,08,12,29,10.10
2011,04,08,12,30,10.20
2011,04,08,12,31,10.20
2011,04,08,12,32,10.30
2011,04,08,12,33,10.30
2011,04,08,12,34,10.30
2011,04,08,12,35,10.30
2011,04,08,12,36,10.30
2011,04,08,12,37,10.30
2011,04,08,12,38,10.30
2011,04,08,12,39,10.40
2011,04,08,12,40,10.40
2011,04,08,12,41,10.40
2011,04,08,12,42,10.40
2011,04,08,12,43,10.50
2011,04,08,12,44,10.60
2011,04,08,12,45,10.60
2011,04,08,12,46,10.70
2011,04,08,12,47,10.70
2011,04,08,12,48,10.80
2011,04,08,12,49,10.80
2011,04,08,12,50,10.90
2011,04,08,12,51,10.90
2011,04,08,12,52,11.00
2011,04,08,12,53,11.10
2011,04,08,12,54,11.10
2011,04,08,12,55,11.20
2011,04,08,12,56,11.20
2011,04,08,12,57,11.20
2011,04,08,12,58,11.20
2011,04,08,12,59,11.30
2011,04,08,13,00,11.40
2011,04,08,13,01,11.50
2011,04,08,13,02,11.60
2011,04,08,13,03,11.60
2011,04,08,13,04,11.60
2011,04,08,13,05,11.60
2011,04,08,13,06,11.60
2011,04,08,13,07,11.60
2011,04,08,13,08,11.70
2011,04,08,13,09,11.70
2011,04,08,13,10,11.70
2011,04,08,13,11,11.70
2011,04,08,13,12,11.70
2011,04,08,13,13,11.70
2011,04,08,13,14,11.70
2011,04,08,13,15,11.70
2011,04,08,13,16,11.60
2011,04,08,13,17,11.60
2011,04,08,13,18,11.70
2011,04,08,13,19,11.70
2011,04,08,13,20,11.80
2011,04,08,13,21,12.00
2011,04,08,13,22,12.10
2011,04,08,13,23,12.20
2011,04,08,13,24,12.30
2011,04,08,13,25,12.40
2011,04,08,13,26,12.40
2011,04,08,13,27,12.50
2011,04,08,13,28,12.40
2011,04,08,13,29,12.40
2011,04,08,13,30,12.40
2011,04,08,13,31,12.40
2011,04,08,13,32,12.40
2011,04,08,13,33,12.50
2011,04,08,13,34,12.50
2011,04,08,13,35,12.60
2011,04,08,13,36,12.70
2011,04,08,13,37,12.80
2011,04,08,13,38,12.90
2011,04,08,13,39,12.90
2011,04,08,13,40,12.90
2011,04,08,13,41,12.80
2011,04,08,13,42,12.80
2011,04,08,13,43,12.90
2011,04,08,13,44,13.00
2011,04,08,13,45,13.10
2011,04,08,13,46,13.10
2011,04,08,13,47,13.20
2011,04,08,13,48,13.20
2011,04,08,13,49,13.10
2011,04,08,13,50,13.00
2011,04,08,13,51,12.90
2011,04,08,13,52,12.80
2011,04,08,13,53,12.90
2011,04,08,13,54,12.90
2011,04,08,13,55,13.00
2011,04,08,13,56,13.10
2011,04,08,13,57,13.10
2011,04,08,13,58,13.20
2011,04,08,13,59,13.30
2011,04,08,14,00,13.40
2011,04,08,14,01,13.40
2011,04,08,14,02,13.50
2011,04,08,14,03,13.50
2011,04,08,14,04,13.60
2011,04,08,14,05,13.50
2011,04,08,14,06,13.40
2011,04,08,14,07,13.40
2011,04,08,14,08,13.30
2011,04,08,14,09,13.30
2011,04,08,14,10,13.40
2011,04,08,14,11,13.40
2011,04,08,14,12,13.40
2011,04,08,14,13,13.30
2011,04,08,14,14,13.20
2011,04,08,14,15,13.20
2011,04,08,14,16,13.10
2011,04,08,14,17,13.10
2011,04,08,14,18,13.00
2011,04,08,14,19,12.90
2011,04,08,14,20,13.00
2011,04,08,14,21,13.00
2011,04,08,14,22,13.10
2011,04,08,14,23,13.10
2011,04,08,14,24,13.20
2011,04,08,14,25,13.20
2011,04,08,14,26,13.20
2011,04,08,14,27,13.20
2011,04,08,14,28,13.20
2011,04,08,14,29,13.30
2011,04,08,14,30,13.40
2011,04,08,14,31,13.50
2011,04,08,14,32,13.50
2011,04,08,14,33,13.50
2011,04,08,14,34,13.60
2011,04,08,14,35,13.50
2011,04,08,14,36,13.60
2011,04,08,14,37,13.60
2011,04,08,14,38,13.60
2011,04,08,14,39,13.60
2011,04,08,14,40,13.60
2011,04,08,14,41,13.60
2011,04,08,14,42,13.70
2011,04,08,14,43,13.70
2011,04,08,14,44,13.70
2011,04,08,14,45,13.70
2011,04,08,14,46,13.60
2011,04,08,14,47,13.60
2011,04,08,14,48,13.60
2011,04,08,14,49,13.60
2011,04,08,14,50,13.60
2011,04,08,14,51,13.60
2011,04,08,14,52,13.60
2011,04,08,14,53,13.60
2011,04,08,14,54,13.70
2011,04,08,14,55,13.70
2011,04,08,14,56,13.70
2011,04,08,14,57,13.70
2011,04,08,14,58,13.70
2011,04,08,14,59,13.70
2011,04,08,15,00,13.70
2011,04,08,15,01,13.70
2011,04,08,15,02,13.70
2011,04,08,15,03,13.70
2011,04,08,15,04,13.70
2011,04,08,15,05,13.80
2011,04,08,15,06,13.80
2011,04,08,15,07,13.80
2011,04,08,15,08,13.80
2011,04,08,15,09,13.80
2011,04,08,15,10,13.90
2011,04,08,15,11,13.90
2011,04,08,15,12,13.90
2011,04,08,15,13,13.90
2011,04,08,15,14,14.00
2011,04,08,15,15,14.00
2011,04,08,15,16,14.00
2011,04,08,15,17,14.00
2011,04,08,15,18,14.10
2011,04,08,15,19,14.10
2011,04,08,15,20,14.10
2011,04,08,15,21,14.20
2011,04,08,15,22,14.20
2011,04,08,15,23,14.20
2011,04,08,15,24,14.10
2011,04,08,15,25,14.00
2011,04,08,15,26,13.90
2011,04,08,15,27,13.90
2011,04,08,15,28,13.80
2011,04,08,15,29,13.80
2011,04,08,15,30,13.90
2011,04,08,15,31,13.90
2011,04,08,15,32,13.90
2011,04,08,15,33,13.90
2011,04,08,15,34,13.90
2011,04,08,15,35,13.90
2011,04,08,15,36,13.90
2011,04,08,15,37,14.00
2011,04,08,15,38,14.10
2011,04,08,15,39,14.20
2011,04,08,15,40,14.10
2011,04,08,15,41,14.10
2011,04,08,15,42,14.10
2011,04,08,15,43,14.00
2011,04,08,15,44,13.90
2011,04,08,15,45,13.90
2011,04,08,15,46,13.80
2011,04,08,15,47,13.90
2011,04,08,15,48,13.90
2011,04,08,15,49,14.00
2011,04,08,15,50,14.10
2011,04,08,15,51,14.20
2011,04,08,15,52,14.20
2011,04,08,15,53,14.30
2011,04,08,15,54,14.30
2011,04,08,15,55,14.30
2011,04,08,15,56,14.20
2011,04,08,15,57,14.20
2011,04,08,15,58,14.10
2011,04,08,15,59,14.10
2011,04,08,16,00,14.00
2011,04,08,16,01,14.00
2011,04,08,16,02,14.00
2011,04,08,16,03,13.90
2011,04,08,16,04,13.90
2011,04,08,16,05,13.90
2011,04,08,16,06,14.00
2011,04,08,16,07,14.00
2011,04,08,16,08,14.00
2011,04,08,16,09,14.00
2011,04,08,16,10,13.90
2011,04,08,16,11,13.80
2011,04,08,16,12,13.70
2011,04,08,16,13,13.60
2011,04,08,16,14,13.60
2011,04,08,16,15,13.60
2011,04,08,16,16,13.60
2011,04,08,16,17,13.60
2011,04,08,16,18,13.60
2011,04,08,16,19,13.70
2011,04,08,16,20,13.70
2011,04,08,16,21,13.70
2011,04,08,16,22,13.70
2011,04,08,16,23,13.70
2011,04,08,16,24,13.70
2011,04,08,16,25,13.70
2011,04,08,16,26,13.80
2011,04,08,16,27,13.80
2011,04,08,16,28,13.80
2011,04,08,16,29,13.90
2011,04,08,16,30,13.90
2011,04,08,16,31,13.90
2011,04,08,16,32,13.90
2011,04,08,16,33,13.90
2011,04,08,16,34,13.90
2011,04,08,16,35,13.90
2011,04,08,16,36,13.90
2011,04,08,16,37,13.90
2011,04,08,16,38,13.90
2011,04,08,16,39,13.90
2011,04,08,16,40,13.90
2011,04,08,16,41,13.90
2011,04,08,16,42,13.90
2011,04,08,16,43,13.90
2011,04,08,16,44,13.90
2011,04,08,16,45,13.90
2011,04,08,16,46,13.80
2011,04,08,16,47,13.80
2011,04,08,16,48,13.70
2011,04,08,16,49,13.70
2011,04,08,16,50,13.70
2011,04,08,16,51,13.60
2011,04,08,16,52,13.60
2011,04,08,16,53,13.50
2011,04,08,16,54,13.40
2011,04,08,16,55,13.40
2011,04,08,16,56,13.40
2011,04,08,16,57,13.40
2011,04,08,16,58,13.40
2011,04,08,16,59,13.40
2011,04,08,17,00,13.40
2011,04,08,17,01,13.40
2011,04,08,17,02,13.40
2011,04,08,17,03,13.40
2011,04,08,17,04,13.40
2011,04,08,17,05,13.40
2011,04,08,17,06,13.40
2011,04,08,17,07,13.40
2011,04,08,17,08,13.40
2011,04,08,17,09,13.30
2011,04,08,17,10,13.30
2011,04,08,17,11,13.30
2011,04,08,17,12,13.30
2011,04,08,17,13,13.30
2011,04,08,17,14,13.30
2011,04,08,17,15,13.30
2011,04,08,17,16,13.30
2011,04,08,17,17,13.20
2011,04,08,17,18,13.20
2011,04,08,17,19,13.20
2011,04,08,17,20,13.20
2011,04,08,17,21,13.20
2011,04,08,17,22,13.10
2011,04,08,17,23,13.10
2011,04,08,17,24,13.10
2011,04,08,17,25,13.10
2011,04,08,17,26,13.00
2011,04,08,17,27,13.00
2011,04,08,17,28,13.00
2011,04,08,17,29,12.90
2011,04,08,17,30,12.90
2011,04,08,17,31,13.00
2011,04,08,17,32,13.00
2011,04,08,17,33,13.00
2011,04,08,17,34,13.00
2011,04,08,17,35,13.00
2011,04,08,17,36,12.90
2011,04,08,17,37,12.90
2011,04,08,17,38,12.90
2011,04,08,17,39,12.90
2011,04,08,17,40,12.90
2011,04,08,17,41,12.90
2011,04,08,17,42,12.90
2011,04,08,17,43,12.90